Погода в Моромбе

Мадагаскар     21°44′36″S   43°21′37″E
темп.,
°C
ветер,
м/с
пор.,
м/с
влажн.,
%
обл.,
%
осадки,
мм/ч
давл.,
гПа
погр.,
м
1 марта, пн
пн100:00+28вюв33773 0.0 1007197
03:00+28вюв237739 0.0 1007197
06:00+27вюв3477100 0.0 1007264
09:00+28в4676100 0.0 1009323
12:00+30ссв226995 0.0 1008284
15:00+29ссз337096 0.8 1007269
18:00+29ю3371100 0.4 1007434
21:00+29вюв3376100 3.0 1009125
2 марта, вт
вт200:00+28ссв2276100 1.9 100945
03:00+27всв7978100 4.9 1008315
06:00+26всв6879100 0.3 1008319
09:00+27всв81078100 0.3 1010422
12:00+29ссв677397 0.0 1009463
15:00+29с677598 0.9 1008478
18:00+29ссз3374100 0.9 1008454
21:00+29ююз1271100 1.1 1009248
3 марта, ср
ср300:00+27ююв6682100 0.2 1009277
03:00+27вюв4575100 0.8 1007221
06:00+27в6772100 0.1 1007321
09:00+27всв6774100 0.1 1009306
12:00+29с457055 0.0 1008344
15:00+29сз336857 0.0 1007529
18:00+29юз1166100 0.1 1006268
21:00+29юв3372100 0.1 1007318
4 марта, чт
чт400:00+28в3375100 0.1 1007222
03:00+27св6684100 0.9 1005369
06:00+26ссв8888100 1.4 1006496
09:00+26св6782100 1.6 1007614
12:00+27св5676100 0.0 1006709
15:00+28св5672100 0.0 1004883
18:00+27всв5578100 0.1 1004527
21:00+26в6782100 0.3 1006369
5 марта, пт
пт500:00+27вюв81177100 0.0 1006505
03:00+26вюв7107699 0.0 1004610
06:00+26в7117588 0.0 1004736
09:00+27в8107650 0.0 1005787
12:00+29в246796 0.0 10041002
15:00+29ююз237198 1.6 1003533
18:00+28ю887779 2.4 1003739
21:00+29ю787478 2.7 1004761